Dewpoint
39 40 40 41 41 41 42 44 44 44 39 36 34 32 30 28 29 30 31 31 31 30 31 31 31 31 31 33 34 35 36 37 40 44 45 44 43 42 41 41 41 41 40
38 39 39 40 40 40 41 43 44 44 39 38 38 38 33 30 29 30 31 32 31 31 29 30 30 31 31 31 32 35 33 34 38 39 41 39 42 43 41 40 39 39 39
38 39 38 39 40 40 40 42 43 44 41 40 38 34 32 30 28 28 29 31 31 32 31 30 30 30 31 30 31 33 34 32 34 38 38 35 35 37 41 41 39 38 38
38 39 38 38 38 39 40 41 42 43 43 41 39 35 34 31 29 27 29 30 30 30 31 31 29 29 30 30 30 31 32 33 32 34 34 39 39 36 33 40 40 38 37
38 39 39 38 38 38 40 40 40 42 43 42 41 38 36 34 30 27 27 28 29 30 30 29 28 27 28 29 29 30 30 31 30 32 34 33 37 36 36 32 34 35 37
38 38 38 37 37 37 38 38 38 39 40 41 40 39 38 33 29 26 25 27 28 29 28 28 28 27 27 27 28 28 29 29 29 30 30 33 33 32 32 31 31 30 35
37 38 37 37 36 36 36 36 35 34 34 36 37 38 38 35 31 30 28 27 27 27 26 26 25 26 27 26 25 25 23 26 27 27 28 30 32 34 34 33 31 30 32
31 33 36 37 36 35 34 34 32 29 28 29 29 29 31 30 29 28 28 28 27 29 27 25 24 24 25 25 25 25 24 22 25 25 25 27 29 31 32 32 31 27 28
29 30 30 31 33 33 32 32 30 28 27 28 28 28 28 27 27 26 26 27 26 25 24 23 23 23 23 24 24 24 23 21 21 23 24 25 27 28 29 32 33 30 26
28 28 29 28 28 27 27 27 28 28 27 26 25 25 26 26 27 26 26 26 25 24 23 22 23 24 23 23 23 23 23 23 24 23 21 22 24 24 25 28 30 31 30
27 28 28 28 28 28 28 28 26 24 23 23 22 22 22 22 23 24 25 24 23 23 23 24 23 22 21 22 22 21 21 22 24 24 22 22 22 22 22 24 26 26 28
27 27 27 27 28 28 29 29 30 30 30 30 29 29 28 28 29 28 25 24 23 24 25 23 23 23 23 22 22 21 21 21 21 21 23 24 22 23 22 22 22 23 24
27 26 26 26 26 27 27 28 29 30 32 33 33 32 32 32 32 32 32 31 31 33 32 29 28 26 23 22 22 22 22 21 21 21 21 22 24 23 22 22 21 22 22
26 25 24 24 24 25 25 26 27 28 30 30 31 30 31 31 31 32 33 33 33 32 32 29 26 25 24 23 22 22 21 21 21 21 21 21 22 23 23 22 21 20 21
24 23 23 23 23 23 24 24 25 25 28 28 28 28 29 30 30 30 31 31 31 30 30 29 27 25 23 22 22 21 22 21 21 22 21 22 24 28 27 23 22 21 21
23 22 23 23 22 22 23 23 23 23 25 24 25 25 25 25 25 24 24 24 25 26 26 26 26 25 25 26 28 27 28 28 27 25 24 23 25 25 28 28 29 29 23
21 21 21 21 21 21 21 21 22 23 23 22 21 20 18 17 17 17 18 18 18 19 20 21 22 22 23 25 26 27 25 28 28 27 25 23 22 24 23 26 27 27 29
20 20 21 21 20 20 19 19 20 19 18 16 15 15 14 12 12 12 12 12 12 13 13 15 16 17 18 22 24 24 22 25 25 25 25 25 24 24 24 22 23 22 20
18 19 20 20 18 17 17 16 15 14 14 12 9 8 9 8 8 8 8 8 9 11 11 10 14 16 16 20 21 21 18 18 19 20 22 23 23 26 26 24 25 22 20
18 17 18 18 17 15 14 12 12 10 10 7 5 5 6 5 5 5 6 7 9 5 6 5 7 12 9 15 18 17 13 13 13 14 14 22 21 25 26 22 22 24 21
17 16 16 15 14 9 8 8 9 7 6 2 2 4 3 3 3 4 5 5 5 5 7 6 8 8 9 9 17 18 14 13 13 13 13 13 21 23 24 24 26 25 24
14 12 11 10 12 8 5 4 5 4 1 1 3 3 2 1 0 4 5 4 5 6 7 6 6 6 6 12 14 17 18 18 15 15 16 16 21 21 22 22 24 25 26
8 7 8 8 8 3 1 2 2 1 0 2 1 1 1 1 2 3 4 5 6 5 5 5 5 5 5 6 15 16 16 17 14 15 21 23 23 24 22 23 24 24 22
4 5 6 6 1 -2 -1 1 0 -1 -0 0 0 1 3 4 5 2 1 4 6 5 5 5 5 6 7 7 8 8 10 14 13 14 14 16 19 22 23 23 25 22 25
3 4 5 -2 -4 -2 -1 -1 -2 -1 -1 0 1 3 2 4 3 3 5 5 6 7 7 9 9 10 10 10 14 15 17 16 16 18 17 15 14 14 13 14 16 19 20
2 -2 -3 -2 -2 -2 -1 -1 -1 -0 0 0 1 2 3 3 3 4 5 10 11 13 13 13 12 13 15 15 15 16 17 19 20 20 19 20 20 18 17 15 13 13 14
Lifted_Index
9 9 10 10 10 11 11 11 11 11 12 12 12 11 11 11 12 13 13 14 14 14 13 13 13 12 11 11 10 10 10 10 10 9 8 8 8 8 8 8 8 7 7
8 9 9 9 10 10 10 11 11 11 11 12 12 12 11 11 12 12 13 14 14 14 13 13 13 12 11 10 10 10 10 10 10 9 8 8 8 8 9 9 9 8 8
7 8 8 9 9 9 10 10 10 10 11 11 12 11 11 11 11 11 12 13 14 14 14 13 13 12 11 10 10 10 9 9 9 10 9 9 8 9 9 10 11 10 10
7 8 8 8 8 9 9 9 9 9 10 11 11 11 11 10 11 11 12 13 14 14 14 13 13 12 12 11 10 10 9 9 9 9 10 10 10 9 9 10 12 12 12
7 7 7 7 8 8 8 9 9 9 9 10 11 11 11 11 11 11 11 12 13 14 14 14 13 13 12 12 11 11 10 9 9 9 9 10 10 10 9 9 11 13 13
7 7 7 7 7 7 8 8 8 8 8 9 10 11 11 11 11 11 11 12 12 13 14 14 14 13 13 13 12 11 11 10 9 9 9 10 10 10 10 10 10 12 13
6 6 6 6 7 7 7 7 7 7 8 9 10 11 12 12 12 12 12 12 12 13 14 14 14 14 14 14 13 13 12 11 10 10 10 10 11 11 11 11 10 11 11
6 6 6 6 6 6 7 7 7 7 8 8 9 11 12 12 12 12 12 13 13 14 14 15 15 15 15 14 14 13 13 12 12 11 12 12 12 12 12 12 11 10 10
5 6 6 6 6 6 7 7 7 7 8 9 9 10 12 12 13 13 13 14 14 15 15 15 15 15 15 14 14 13 13 13 13 12 12 13 13 13 13 13 13 11 10
5 6 6 6 6 6 7 7 7 7 8 9 10 11 12 13 13 14 14 15 15 15 15 15 15 15 14 14 13 13 13 13 13 13 13 13 13 14 14 14 14 13 12
6 6 6 6 6 7 7 7 7 7 8 9 10 11 12 13 13 14 14 15 15 15 15 15 15 14 14 14 13 13 13 13 13 13 13 13 13 14 14 14 14 14 14
6 6 6 6 6 7 7 8 8 8 9 10 11 12 13 13 13 13 14 14 15 14 14 14 14 14 14 14 14 13 13 13 13 13 13 13 13 14 14 14 14 14 14
5 6 6 6 7 7 8 9 9 10 11 11 12 12 13 13 13 13 14 15 15 15 14 14 14 14 14 14 14 14 14 13 13 13 14 14 13 13 14 14 14 14 14
4 5 6 6 7 9 10 10 11 12 12 12 12 13 13 13 14 14 15 15 16 16 15 15 15 15 15 15 15 15 14 14 14 14 15 14 14 14 13 13 13 13 13
3 4 6 7 9 11 12 12 13 13 13 13 13 13 14 14 14 15 15 16 16 16 16 16 15 15 15 15 15 15 15 15 15 15 15 15 14 14 14 13 13 12 12
4 5 7 9 11 12 13 13 14 14 14 14 14 14 15 15 15 16 16 17 17 17 16 16 16 15 15 15 16 16 15 15 15 14 14 14 14 13 13 12 12 12 11
7 8 10 12 13 14 14 14 15 15 15 15 15 16 16 16 17 17 17 17 17 17 17 17 16 16 16 16 16 16 16 15 15 14 13 13 13 12 12 12 12 11 11
11 12 13 14 15 15 15 15 16 16 16 16 16 17 17 17 18 18 18 18 18 18 18 18 17 17 17 17 16 16 15 15 14 14 13 13 12 12 12 12 12 11 11
14 14 15 15 15 16 16 16 16 16 17 17 17 18 18 18 18 19 19 19 19 19 18 18 18 17 17 16 16 15 15 14 14 14 13 13 13 13 12 12 12 12 11
15 15 16 16 16 17 17 16 16 17 17 17 18 18 19 19 19 19 19 19 19 18 18 18 17 17 16 16 16 15 15 14 14 14 14 14 13 13 13 12 12 12 11
15 16 16 16 17 18 18 17 17 17 18 18 18 18 19 19 18 18 18 18 17 17 16 16 16 16 16 16 16 16 15 15 15 14 14 14 13 13 13 12 12 11 11
15 16 16 17 18 18 18 17 17 18 18 18 18 18 18 18 17 17 16 16 16 15 15 15 15 15 16 16 16 16 16 15 15 14 14 14 13 13 12 12 11 11 11
16 16 17 17 18 18 18 17 17 17 17 17 16 16 16 16 16 16 15 15 15 15 14 14 14 15 16 17 17 17 16 16 15 14 14 13 13 12 12 11 10 10 10
17 17 17 17 17 18 18 17 17 17 16 15 15 15 15 15 15 15 15 15 15 15 15 15 15 15 16 16 16 16 16 15 15 14 14 13 13 12 11 11 10 10 10
16 16 16 16 16 16 17 17 17 17 16 15 14 14 14 15 15 15 16 16 16 16 16 16 16 16 16 16 16 15 15 14 14 13 13 13 12 12 11 10 10 10 10
16 16 16 15 15 15 16 16 16 16 15 14 14 14 15 15 15 15 16 17 18 18 17 17 17 17 16 16 16 15 14 14 13 13 12 12 12 11 11 10 10 10 10